TimeCST,TemperatureF,Dew PointF,Humidity,Sea Level PressureIn,VisibilityMPH,Wind Direction,Wind SpeedMPH,Gust SpeedMPH,PrecipitationIn,Events,Conditions,WindDirDegrees,DateUTC
12:54 AM,37.9,33.1,83,30.28,10.0,Calm,Calm,-,N/A,,Clear,0,2012-11-19 06:54:00
1:54 AM,37.0,32.0,82,30.28,10.0,ESE,3.5,-,N/A,,Clear,120,2012-11-19 07:54:00
2:54 AM,39.0,33.1,79,30.27,10.0,Calm,Calm,-,N/A,,Clear,0,2012-11-19 08:54:00
3:54 AM,37.9,34.0,86,30.26,10.0,Calm,Calm,-,N/A,,Clear,0,2012-11-19 09:54:00
4:54 AM,37.0,33.1,86,30.28,10.0,Calm,Calm,-,N/A,,Clear,0,2012-11-19 10:54:00
5:54 AM,37.9,34.0,86,30.27,10.0,ENE,5.8,-,N/A,,Clear,70,2012-11-19 11:54:00
6:54 AM,41.0,35.1,79,30.26,10.0,ENE,5.8,-,N/A,,Clear,70,2012-11-19 12:54:00
7:54 AM,44.1,37.0,76,30.27,10.0,ENE,3.5,-,N/A,,Overcast,60,2012-11-19 13:54:00
8:54 AM,46.9,41.0,80,30.28,10.0,Calm,Calm,-,N/A,,Overcast,0,2012-11-19 14:54:00
9:54 AM,53.1,39.0,59,30.27,10.0,Calm,Calm,-,N/A,,Overcast,0,2012-11-19 15:54:00
10:54 AM,55.0,37.9,53,30.26,10.0,Variable,4.6,-,N/A,,Overcast,0,2012-11-19 16:54:00
11:54 AM,55.9,39.0,53,30.23,10.0,South,4.6,-,N/A,,Overcast,190,2012-11-19 17:54:00
12:54 PM,57.0,41.0,55,30.21,10.0,SSW,8.1,-,N/A,,Overcast,200,2012-11-19 18:54:00
1:54 PM,57.0,41.0,55,30.19,10.0,SSW,5.8,-,N/A,,Overcast,200,2012-11-19 19:54:00
2:54 PM,59.0,41.0,51,30.16,10.0,South,6.9,-,N/A,,Mostly Cloudy,180,2012-11-19 20:54:00
3:54 PM,57.9,39.9,51,30.17,10.0,South,6.9,-,N/A,,Mostly Cloudy,190,2012-11-19 21:54:00
4:54 PM,55.9,39.0,53,30.14,10.0,ESE,4.6,-,N/A,,Scattered Clouds,120,2012-11-19 22:54:00
5:54 PM,55.9,39.0,53,30.14,10.0,South,4.6,-,N/A,,Scattered Clouds,170,2012-11-19 23:54:00
6:54 PM,55.0,39.0,55,30.15,10.0,South,4.6,-,N/A,,Mostly Cloudy,190,2012-11-20 00:54:00
7:54 PM,50.0,39.9,68,30.14,10.0,SSW,5.8,-,0.01,,Partly Cloudy,200,2012-11-20 01:54:00
8:54 PM,51.1,39.9,66,30.14,10.0,SSW,3.5,-,N/A,,Clear,200,2012-11-20 02:54:00
9:54 PM,45.0,39.0,80,30.13,10.0,Calm,Calm,-,N/A,,Clear,0,2012-11-20 03:54:00
10:54 PM,42.1,37.9,85,30.13,10.0,Calm,Calm,-,N/A,,Clear,0,2012-11-20 04:54:00
11:54 PM,39.0,36.0,89,30.13,10.0,Calm,Calm,-,N/A,,Clear,0,2012-11-20 05:54:00